Location: ?????
(54.9266°N, 38.5527°E)
Time: 01:42:43
(UTC+00:00)

NOSS 3-4 (A) - Visible Passes

Search period start: 19 July 2024 00:00
Search period end: 29 July 2024 00:00
Orbit: 801 x 1410 km, 63.4° (Epoch: 04 June)

Date Brightness Start Highest point End Pass type
(mag) Time Alt. Az. Time Alt. Az. Time Alt. Az.
19 Jul 5.2 22:59:03 10° SSE 23:02:35 17° ESE 23:06:18 10° ENE visible
20 Jul 5.5 22:17:16 10° ESE 22:18:16 10° ESE 22:19:17 10° E visible
21 Jul 3.8 00:02:13 10° SSW 00:07:30 50° SE 00:13:23 10° NE visible
21 Jul 4.3 23:18:31 13° S 23:22:53 34° ESE 23:28:14 10° ENE visible
22 Jul 4.8 22:34:57 13° SSE 22:38:23 23° ESE 22:42:52 10° ENE visible
23 Jul 3.4 00:22:45 10° SW 00:28:19 86° SE 00:34:37 10° NE visible
23 Jul 5.2 21:51:21 11° SE 21:54:00 14° ESE 21:56:59 10° ENE visible
23 Jul 3.5 23:38:45 14° SSW 23:43:29 62° SE 23:49:35 10° NE visible
24 Jul 3.9 22:55:07 18° S 22:58:48 43° SE 23:04:29 10° NE visible
25 Jul 4.4 22:11:28 19° SSE 22:14:13 29° ESE 22:19:16 10° ENE visible
25 Jul 3.4 23:58:52 10° SW 00:04:26 81° NW 00:10:47 10° NE visible
26 Jul 4.8 21:27:46 16° SE 21:29:47 19° ESE 21:33:45 10° ENE visible
26 Jul 3.3 23:15:10 17° SW 23:19:32 76° SE 23:25:45 10° NE visible
27 Jul 5.2 20:44:03 11° ESE 20:45:27 12° ESE 20:47:19 10° E visible
27 Jul 3.5 22:31:27 23° SSW 22:34:45 53° SE 22:40:42 10° NE visible
28 Jul 4.0 00:20:04 10° WSW 00:25:39 56° NNW 00:32:01 10° NE visible
28 Jul 4.0 21:47:42 25° SSE 21:50:07 36° ESE 21:55:34 10° ENE visible
28 Jul 3.6 23:35:06 11° WSW 23:40:35 70° NNW 23:46:57 10° NE visible
